TimeCDT,TemperatureF,Dew PointF,Humidity,Sea Level PressureIn,VisibilityMPH,Wind Direction,Wind SpeedMPH,Gust SpeedMPH,PrecipitationIn,Events,Conditions,WindDirDegrees,DateUTC
12:54 AM,64.0,46.9,54,29.99,10.0,ESE,4.6,-,N/A,,Clear,120,2013-05-08 05:54:00
1:54 AM,62.1,46.9,58,29.99,10.0,ESE,6.9,-,N/A,,Clear,120,2013-05-08 06:54:00
2:54 AM,60.1,48.0,64,29.98,10.0,SE,6.9,-,N/A,,Clear,140,2013-05-08 07:54:00
3:54 AM,57.0,48.9,74,29.98,10.0,SE,5.8,-,N/A,,Clear,140,2013-05-08 08:54:00
4:54 AM,57.0,48.9,74,29.99,10.0,SSE,5.8,-,N/A,,Clear,160,2013-05-08 09:54:00
5:54 AM,55.9,48.9,77,30.00,10.0,SSE,4.6,-,N/A,,Clear,160,2013-05-08 10:54:00
6:54 AM,55.9,50.0,80,30.01,10.0,SSE,5.8,-,N/A,,Clear,150,2013-05-08 11:54:00
7:54 AM,60.1,54.0,80,30.03,10.0,South,5.8,-,N/A,,Clear,180,2013-05-08 12:54:00
8:54 AM,66.0,55.9,70,30.03,10.0,South,5.8,-,N/A,,Clear,170,2013-05-08 13:54:00
9:54 AM,71.1,55.9,59,30.02,10.0,South,4.6,-,N/A,,Clear,170,2013-05-08 14:54:00
10:54 AM,75.0,55.0,50,30.03,10.0,SSW,9.2,-,N/A,,Partly Cloudy,200,2013-05-08 15:54:00
11:54 AM,75.9,55.0,48,30.03,10.0,SW,11.5,-,N/A,,Scattered Clouds,230,2013-05-08 16:54:00
12:54 PM,77.0,54.0,45,30.01,10.0,SSW,8.1,-,N/A,,Mostly Cloudy,210,2013-05-08 17:54:00
1:54 PM,73.0,55.0,53,30.01,10.0,WSW,18.4,-,N/A,,Scattered Clouds,250,2013-05-08 18:54:00
2:54 PM,68.0,57.9,70,30.02,10.0,SW,10.4,-,0.00,Rain,Light Rain,220,2013-05-08 19:54:00
3:54 PM,66.9,57.9,73,30.01,10.0,West,3.5,-,0.00,Rain,Light Rain,270,2013-05-08 20:54:00
4:54 PM,64.9,60.1,84,30.01,10.0,Calm,Calm,-,0.00,,Overcast,0,2013-05-08 21:54:00
5:54 PM,66.9,57.0,70,29.99,10.0,East,5.8,-,N/A,,Mostly Cloudy,100,2013-05-08 22:54:00
6:54 PM,66.9,57.0,70,29.97,10.0,East,6.9,-,N/A,,Scattered Clouds,100,2013-05-08 23:54:00
7:54 PM,64.9,57.0,75,29.96,10.0,ESE,4.6,-,N/A,,Clear,110,2013-05-09 00:54:00
8:54 PM,63.0,57.0,81,29.96,10.0,ESE,8.1,-,N/A,,Clear,110,2013-05-09 01:54:00
9:54 PM,62.1,57.9,86,29.96,10.0,ESE,6.9,-,N/A,,Overcast,120,2013-05-09 02:54:00
10:54 PM,63.0,57.0,81,29.95,10.0,ESE,8.1,-,N/A,,Overcast,120,2013-05-09 03:54:00
11:54 PM,63.0,57.0,81,29.95,10.0,SE,8.1,-,N/A,,Mostly Cloudy,140,2013-05-09 04:54:00